SKBOSKCL

Guest
Details From SKBO - Bogota - El Dorado Intl
To SKCL - ALFONSO BONILLA ARAGON INTL
Flight Number -
Tags generated
Created
Modified
Stats Distance 152 nm / 281 km
Max Altitude 18,800 ft / 5,730 m
Waypoints 3
Social Downloads 0
Likes 0
Share VATSIM

Download

Looking for another format? Having issues loading an existing format? Contact us
Advertisement - Login to hide

Notes

Basic altitude profile: - Ascent Rate: 2500ft/min - Ascent Speed: 250kts - Cruise Altitude: 35000ft - Cruise Speed: 420kts - Descent Rate: 1500ft/min - Descent Speed: 250kts Options: - Use NATs: yes - Use PACOTS: yes - Use low airways: no - Use high airways: yes

Route

SKBO GIR SKCL

ID Type Via Altitude (ft/m) Position (lat/lon) Dist (leg/tot) Name
O SKBO APT - 0 / 0 4.70159 / -74.14695 - / 0 nm Bogota - El Dorado Intl
GIR VOR - 18,800 / 5,730 4.19167 / -74.86583 52 / 52 nm GIRARDOT VOR-DME
O SKCL APT - 0 / 0 3.54322 / -76.38159 98 / 151 nm ALFONSO BONILLA ARAGON INTL

Altitude Profile

Advertisement - Login to hide

SKBO

Details ICAO SKBO (BOG)
Name El Dorado Int'l
Region Colombia
Timezone America/Bogota (UTC-5.0)
Stats Elevation 8,359 ft / 2,548 m (AMSL)
Location 4.701620° -74.147000°
Runways 2
Magnetic Variation 7.391° W

METAR

SKBO 220700Z 26003KT 9999 FEW020 SCT080 11/10 A3025

Decode

TAF

Not found

Departure Runways

ID Width Length Bearing (true/mag) Surface Threshold Overrun Markings Lighting
13L 148 ft / 45 m 12,479 ft / 3,804 m 127.19° / 134.58° ASPHALT 0 ft / 0 m 0 ft / 0 m PREC-APP CENTERLINE EDGE THRESHOLD ALSF-I TDZ
13R 148 ft / 45 m 12,479 ft / 3,804 m 127.20° / 134.59° ASPHALT 0 ft / 0 m 203 ft / 62 m PREC-APP CENTERLINE EDGE THRESHOLD ALSF-II TDZ
31L 148 ft / 45 m 12,479 ft / 3,804 m 307.20° / 314.59° ASPHALT 0 ft / 0 m 187 ft / 57 m PREC-APP CENTERLINE EDGE THRESHOLD ALSF-II TDZ REIL-OMNI
31R 148 ft / 45 m 12,479 ft / 3,804 m 307.19° / 314.58° ASPHALT 0 ft / 0 m 85 ft / 26 m PREC-APP CENTERLINE EDGE THRESHOLD ALSF-I TDZ

SKCL

Details ICAO SKCL (CLO)
Name Alfonso B. Aragon
Region Colombia
Timezone America/Bogota (UTC-5.0)
Stats Elevation 3,162 ft / 964 m (AMSL)
Location 3.543220° -76.381600°
Runways 1
Magnetic Variation 5.711° W

METAR

SKCL 220700Z 15003KT 9999 FEW030 BKN090 20/18 A2997

Decode

TAF

Not found

Destination Runways

ID Width Length Bearing (true/mag) Surface Threshold Overrun Markings Lighting
02 148 ft / 45 m 9,852 ft / 3,003 m 9.91° / 15.62° ASPHALT 0 ft / 0 m 0 ft / 0 m PREC-APP CENTERLINE EDGE THRESHOLD ALSF-I
20 148 ft / 45 m 9,852 ft / 3,003 m 189.91° / 195.62° ASPHALT 0 ft / 0 m 82 ft / 25 m PREC-APP CENTERLINE EDGE THRESHOLD ALSF-I

Approach Navaids

Runway Type Ident Frequency Range Bearing (true/mag) Slope Elevation
02 LOC-ILS IPAS 109.90 MHz 18 nm / 33 km 9.91° / 15.62 ° - 3,162 ft / 964 m (AMSL)
02 GS IPAS 109.90 MHz 10 nm / 19 km 9.91° / 15.62 ° 3.00° 3,162 ft / 964 m (AMSL)
02 MM MM - - 9.91° / 15.62 ° - 3,156 ft / 962 m (AMSL)

Popular Alternatives